Back to catalog

NOAA 16 DEB

AliveSSO
NORAD 41055·DEBRIS·🇺🇸 United States

Launched Sep 21, 2000 from Vandenberg Space Force Base

Loading…

Next Passes (next 24 hours)

TLE

FreshSource: Space-Track

Epoch: Sep 14, 2026, 06:10 UTC

1 41055U 00055N   26257.25717024  .00002709  00000-0  93251-3 0  9996
2 41055  98.7971  14.1442 0012848 298.3931  61.5959 14.36779552560377

Track NOAA 16 DEB in real time with AllMySat

Download on the App Store